Regional Weather Roundup
Issued by NWS

Home | Current Version | Previous Version | Graphics & Text | Print | Product List | Glossary On
Versions: 1 2 3 4 5 6 7 8 9 10 11 12 13 14 15 16 17 18 19 20 21 22 23 24 25 26 27 28 29 30 31 32 33 34 35 36 37 38 39 40 41 42 43 44 45 46 47 48 49 50
000
ASUS45 KABQ 260010
RWRNM
WEATHER ROUNDUP FOR NEW MEXICO
NATIONAL WEATHER SERVICE ALBUQUERQUE NM
500 PM MST SUN JAN 25 2015

NOTE: "FAIR" MEANS FEW OR NO CLOUDS BELOW 12,000 FEET AGL WITH NO
       SIGNIFICANT WEATHER OR OBSTRUCTIONS TO VISION.

      THIS PRODUCT IS RELEASED AS TWO VERSIONS.  ONE VERSION NEAR
      THE TOP OF THE HOUR CONTAINING PRELIMINARY DATA FROM ALBUQUERQUE
      AND OTHER STATIONS.  A FINAL VERSION WITH ADDITIONAL DATA IS
      ISSUED ABOUT 10 MINUTES AFTER THE HOUR.

NMZ501-503-504-510>518-260100-
NORTHWEST PLATEAU/NORTHCENTRAL MOUNTAINS

CITY           SKY/WX    TMP DP  RH WIND       PRES   REMARKS
FARMINGTON     CLEAR     47  20  34 CALM      30.26S
6HR MIN TEMP:  36; 6HR MAX TEMP:  49;

LOS ALAMOS     CLEAR     47  20  34 CALM      30.28R
SANTA FE       CLEAR     47  19  33 SW6       30.24R
6HR MIN TEMP:  43; 6HR MAX TEMP:  53;

TAOS           CLEAR     45  23  42 N12       30.27R
ANGEL FIRE     FAIR      41  23  49 SW14      30.28R

$$
NMZ402-403-502-505>509-260100-
WESTCENTRAL MOUNTAINS/SOUTHWEST MOUNTAINS

CITY           SKY/WX    TMP DP  RH WIND       PRES   REMARKS
GALLUP         CLEAR     54  23  30 N3        30.28S
6HR MIN TEMP:  40; 6HR MAX TEMP:  54;

GRANTS         CLEAR     49  25  39 N9        30.28S
SILVER CITY    CLEAR     54  18  24 S12       30.26R

$$
NMZ407-409-411-412-260100-
SOUTHERN DESERTS

CITY           SKY/WX    TMP DP  RH WIND       PRES   REMARKS
LORDSBURG      FAIR      55  27  33 SE10      30.21R
DEMING         PTCLDY    55  25  31 E6        30.23R
6HR MIN TEMP:  52; 6HR MAX TEMP:  58;

LAS CRUCES     PTCLDY    54  28  36 CALM      30.23R
HOLLOMAN AFB   PTCLDY    55  28  35 NW5       30.20F
ALAMOGORDO     CLEAR     55  25  30 W3        30.22S
T OR C         CLEAR     58  18  21 E5        30.21S
6HR MIN TEMP:  46; 6HR MAX TEMP:  59;


$$
NMZ519>523-260100-
CENTRAL VALLEYS/CENTRAL HIGHLANDS

CITY           SKY/WX    TMP DP  RH WIND       PRES   REMARKS
ALBUQUERQUE    PTCLDY    54  21  27 W3        30.24S
6HR MIN TEMP:  43; 6HR MAX TEMP:  56;

DOUBLE EAGLE   CLEAR     52  23  32 VRB3      30.25S
MORIARTY ARPT  FAIR      49  23  35 NW9       30.24R
6HR MIN TEMP:  44; 6HR MAX TEMP:  56;

CLINES CORNERS CLEAR     45  24  43 NW12      30.23R
6HR MIN TEMP:  37; 6HR MAX TEMP:  49;

BELEN          FAIR      54  21  27 CALM      30.23S
6HR MIN TEMP:  44; 6HR MAX TEMP:  55;

SOCORRO        FAIR      55  22  27 NW5       30.22F
6HR MIN TEMP:  47; 6HR MAX TEMP:  57;


$$
NMZ524>526-539-540-260100-
SOUTHCENTRAL MOUNTAINS

CITY           SKY/WX    TMP DP  RH WIND       PRES   REMARKS
RUIDOSO        CLEAR     46  23  39 NW6       30.27S

$$
NMZ527>531-260100-
NORTHEAST HIGHLANDS/NORTHEAST PLAINS

CITY           SKY/WX    TMP DP  RH WIND       PRES   REMARKS
LAS VEGAS      CLEAR     39  26  59 SE7       30.24R WCI  34
6HR MIN TEMP:  39; 6HR MAX TEMP:  46;

RATON          CLEAR     39  24  55 S6        30.22S WCI  35
6HR MIN TEMP:  39; 6HR MAX TEMP:  45;

CLAYTON        CLEAR     42  30  62 W10       30.18S
6HR MIN TEMP:  42; 6HR MAX TEMP:  48;


$$
NMZ532>537-260100-
EASTCENTRAL PLAINS

CITY           SKY/WX    TMP DP  RH WIND       PRES   REMARKS
TUCUMCARI      CLEAR     46  32  58 S9        30.22R
6HR MIN TEMP:  45; 6HR MAX TEMP:  50; 6HR PCP: TRACE;

CANNON AFB     CLEAR     47  32  54 CALM      30.24R
6HR MIN TEMP:  42; 6HR MAX TEMP:  49;

CLOVIS AIRPORT CLEAR     48  30  49 W6        30.24S

$$
NMZ028-029-538-260100-
SOUTHEAST PLAINS

CITY           SKY/WX    TMP DP  RH WIND       PRES   REMARKS
ROSWELL        CLEAR     54  29  38 S7        30.22F
6HR MIN TEMP:  51; 6HR MAX TEMP:  57;

ARTESIA        CLEAR     54  32  43 S8        30.24S
CARLSBAD       CLEAR     56  26  31 S7        30.22S
6HR MIN TEMP:  54; 6HR MAX TEMP:  61;

HOBBS          CLEAR     55  27  33 CALM      30.24F


$$


USA.gov is the U.S. government's official web portal to all federal, state and local government web resources and services.